Date String (YYYY-MM-DD hh:mm:ss) UTC,Instrument flags,Ambient pressure (hPa),Sample flow (lpm),Bypass flow (lpm),Sample temperature (°C),Ambient temperature (°C),ASC tube jacket temperature (°C),LED temperature (°C),Box temperature (°C),Sample RH (%),Span deviation,Mass concentration (μg/m³),Mass concentration (μg/m³),Mass concentration (μg/m³)
DateTimeUTC,F1_M11,P_M11,Q1_M11,Q2_M11,T1_M11,T2_M11,T3_M11,T4_M11,T5_M11,U1_M11,ZSPAN_M11,X2_M11,X0_M11,X1_M11
2023-02-26 08:00:00,,0819.2,4.99,0.00,22.5,22.1,00.0,31.1,24.4,13.0,0000.0,0003.57,0007.61,0003.01
2023-02-26 08:01:00,,0819.3,5.01,0.00,22.5,21.8,00.0,31.1,24.4,12.8,0000.0,0003.57,0007.75,0002.95
2023-02-26 08:02:00,,0819.2,5.00,0.00,22.5,21.6,00.0,31.1,24.3,12.5,0000.0,0003.52,0007.84,0002.85
2023-02-26 08:03:00,,0819.1,5.01,0.00,22.5,21.4,00.0,31.1,24.3,12.5,0000.0,0003.48,0007.84,0002.77
2023-02-26 08:04:00,,0819.1,5.01,0.00,22.5,21.2,00.0,31.1,24.3,12.6,0000.0,0003.42,0007.60,0002.69
2023-02-26 08:05:00,,0819.0,5.00,0.00,22.5,21.1,00.0,31.1,24.3,12.8,0000.0,0003.41,0007.11,0002.66
2023-02-26 08:06:00,,0819.0,5.02,0.00,22.5,21.0,00.0,31.1,24.3,13.1,0000.0,0003.43,0007.42,0002.63
2023-02-26 08:07:00,,0819.1,4.98,0.00,22.5,21.0,00.0,31.2,24.3,13.4,0000.0,0003.44,0007.58,0002.64
2023-02-26 08:08:00,,0819.1,5.00,0.00,22.5,20.9,00.0,31.2,24.3,13.5,0000.0,0003.47,0007.61,0002.70
2023-02-26 08:09:00,,0819.1,5.00,0.00,22.5,20.9,00.0,31.2,24.3,13.5,0000.0,0003.50,0007.63,0002.79
2023-02-26 08:10:00,,0819.0,5.01,0.00,22.5,20.9,00.0,31.2,24.3,13.5,0000.0,0003.49,0007.57,0002.83
2023-02-26 08:11:00,,0819.0,5.00,0.00,22.5,20.9,00.0,31.2,24.3,13.5,0000.0,0003.52,0008.42,0002.88
2023-02-26 08:12:00,,0819.0,5.00,0.00,22.4,20.9,00.0,31.2,24.3,13.5,0000.0,0003.48,0008.26,0002.90
2023-02-26 08:13:00,,0819.0,5.00,0.00,22.4,20.9,00.0,31.2,24.3,13.6,0000.0,0003.51,0008.23,0002.95
2023-02-26 08:14:00,,0819.0,4.99,0.00,22.4,20.8,00.0,31.2,24.2,13.6,0000.0,0003.56,0008.42,0003.02
2023-02-26 08:15:00,,0818.9,5.01,0.00,22.4,20.8,00.0,31.2,24.2,13.6,0000.0,0003.64,0009.28,0003.08
2023-02-26 08:16:00,,0818.9,5.02,0.00,22.4,20.8,00.0,31.2,24.2,13.5,0000.0,0003.68,0009.97,0003.12
2023-02-26 08:17:00,,0818.9,5.00,0.00,22.4,20.8,00.0,31.1,24.2,13.6,0000.0,0003.70,0009.57,0003.13
2023-02-26 08:18:00,,0819.0,5.00,0.00,22.4,20.8,00.0,31.1,24.2,13.6,0000.0,0003.70,0009.44,0003.14
2023-02-26 08:19:00,,0818.9,4.99,0.00,22.4,20.8,00.0,31.1,24.2,13.7,0000.0,0003.72,0009.51,0003.14
2023-02-26 08:20:00,,0818.9,5.00,0.00,22.4,20.7,00.0,31.1,24.2,13.7,0000.0,0003.70,0009.47,0003.13
2023-02-26 08:21:00,,0818.9,5.00,0.00,22.4,20.7,00.0,31.1,24.1,13.7,0000.0,0003.72,0009.60,0003.13
2023-02-26 08:22:00,,0818.9,5.00,0.00,22.4,20.7,00.0,31.1,24.1,13.7,0000.0,0003.73,0008.81,0003.13
2023-02-26 08:23:00,,0818.9,5.00,0.00,22.3,20.6,00.0,31.1,24.1,13.7,0000.0,0003.81,0009.33,0003.13
2023-02-26 08:24:00,,0818.9,4.99,0.00,22.3,20.6,00.0,31.1,24.1,13.7,0000.0,0003.83,0009.38,0003.15
2023-02-26 08:25:00,,0818.9,5.01,0.00,22.3,20.6,00.0,31.1,24.1,13.7,0000.0,0003.81,0009.16,0003.15
2023-02-26 08:26:00,,0818.9,5.00,0.00,22.3,20.6,00.0,31.1,24.0,13.4,0000.0,0003.77,0009.06,0003.13
2023-02-26 08:27:00,,0818.9,5.00,0.00,22.3,20.5,00.0,31.1,24.0,13.3,0000.0,0003.73,0008.36,0003.10
2023-02-26 08:28:00,,0819.0,5.00,0.00,22.3,20.5,00.0,31.1,24.0,13.3,0000.0,0003.68,0008.28,0003.05
2023-02-26 08:29:00,,0818.9,4.99,0.00,22.2,20.5,00.0,31.1,24.0,13.4,0000.0,0003.64,0008.14,0003.03
2023-02-26 08:30:00,,0818.9,4.99,0.00,22.2,20.4,00.0,31.0,24.0,13.5,0000.0,0003.60,0008.04,0002.99
2023-02-26 08:31:00,,0819.0,5.01,0.00,22.2,20.6,00.0,31.0,24.0,13.5,0000.0,0003.60,0008.06,0002.96
2023-02-26 08:32:00,,0818.9,4.99,0.00,22.3,21.6,00.0,31.0,24.2,13.5,0000.0,0003.63,0008.10,0002.95
2023-02-26 08:33:00,,0818.9,5.02,0.00,22.4,22.6,00.0,31.0,24.4,13.7,0000.0,0003.64,0008.17,0002.95
2023-02-26 08:34:00,,0818.9,5.01,0.00,22.5,22.7,00.0,31.1,24.5,14.0,0000.0,0003.64,0007.80,0003.01
2023-02-26 08:35:00,,0818.9,4.99,0.00,22.5,22.2,00.0,31.1,24.4,14.0,0000.0,0003.65,0007.67,0003.08
2023-02-26 08:36:00,,0818.8,5.00,0.00,22.5,21.7,00.0,31.1,24.3,14.1,0000.0,0003.74,0007.79,0003.14
2023-02-26 08:37:00,,0818.8,5.02,0.00,22.4,21.4,00.0,31.1,24.2,14.1,0000.0,0003.83,0007.31,0003.20
2023-02-26 08:38:00,,0818.8,4.99,0.00,22.4,21.2,00.0,31.1,24.1,14.1,0000.0,0003.91,0007.54,0003.25
2023-02-26 08:39:00,,0818.9,5.00,0.00,22.4,21.0,00.0,31.1,24.1,14.0,0000.0,0003.96,0007.58,0003.31
2023-02-26 08:40:00,,0818.9,5.00,0.00,22.3,20.8,00.0,31.1,24.0,14.0,0000.0,0004.00,0007.77,0003.35
2023-02-26 08:41:00,,0818.9,5.01,0.00,22.3,20.6,00.0,31.1,24.0,14.1,0000.0,0004.05,0007.84,0003.39
2023-02-26 08:42:00,,0818.8,4.98,0.00,22.3,20.5,00.0,31.1,23.9,14.2,0000.0,0004.15,0008.06,0003.44
2023-02-26 08:43:00,,0818.7,5.00,0.00,22.2,20.4,00.0,31.1,23.9,14.2,0000.0,0004.17,0008.01,0003.49
2023-02-26 08:44:00,,0818.8,4.99,0.00,22.2,20.3,00.0,31.1,23.9,14.2,0000.0,0004.19,0007.99,0003.52
2023-02-26 08:45:00,,0818.7,5.00,0.00,22.2,20.3,00.0,31.0,23.9,14.3,0000.0,0004.20,0008.46,0003.54
2023-02-26 08:46:00,,0818.7,5.00,0.00,22.2,20.4,00.0,31.0,23.9,14.2,0000.0,0004.23,0008.64,0003.55
2023-02-26 08:47:00,,0818.8,5.00,0.00,22.2,20.4,00.0,31.0,23.9,14.3,0000.0,0004.22,0008.67,0003.55
2023-02-26 08:48:00,,0818.7,5.00,0.00,22.2,20.4,00.0,31.0,23.9,14.3,0000.0,0004.22,0008.64,0003.56
2023-02-26 08:49:00,,0818.6,5.02,0.00,22.2,20.4,00.0,31.0,23.9,14.3,0000.0,0004.23,0008.92,0003.56
2023-02-26 08:50:00,,0818.5,4.99,0.00,22.1,20.4,00.0,31.0,23.9,14.2,0000.0,0004.24,0009.15,0003.56
2023-02-26 08:51:00,,0818.5,5.00,0.00,22.1,20.4,00.0,31.0,23.9,14.2,0000.0,0004.27,0009.22,0003.57
2023-02-26 08:52:00,,0818.4,4.99,0.00,22.1,20.4,00.0,31.0,23.9,14.1,0000.0,0004.29,0009.30,0003.57
2023-02-26 08:53:00,,0818.4,5.00,0.00,22.1,20.4,00.0,30.9,23.9,14.1,0000.0,0004.25,0009.58,0003.57
2023-02-26 08:54:00,,0818.4,4.99,0.00,22.1,20.4,00.0,30.9,23.9,14.1,0000.0,0004.23,0010.32,0003.57
2023-02-26 08:55:00,,0818.4,5.02,0.00,22.2,21.1,00.0,30.9,24.0,14.1,0000.0,0004.21,0010.24,0003.56
2023-02-26 08:56:00,,0818.4,4.98,0.00,22.3,22.2,00.0,30.9,24.2,13.9,0000.0,0004.17,0009.58,0003.54
2023-02-26 08:57:00,,0818.4,4.98,0.00,22.4,22.9,00.0,30.9,24.4,13.8,0000.0,0004.15,0009.48,0003.51
2023-02-26 08:58:00,,0818.4,5.00,0.00,22.4,22.6,00.0,31.0,24.4,13.7,0000.0,0004.12,0009.66,0003.49
2023-02-26 08:59:00,,0818.4,5.02,0.00,22.4,22.2,00.0,31.0,24.4,13.7,0000.0,0004.10,0009.75,0003.47
